Home > Weather > Burnaby > Past weeks

Flag for Canada Past Weather in Burnaby, British Columbia, Canada — Yesterday and Last 2 Weeks

Now
50 °F

Overcast.


Feels Like: 48 °F
Forecast: 49 / 61 °F
Wind: 5 mph from Northwest

Location: Vancouver International Airport

Current Time: May 29, 2016 at 4:40:04 AM

Latest Report: May 29, 2016 at 4:00 AM


Visibility: 12 mi

Pressure: 30.01 "Hg

Humidity: 94%

Dew Point: 48 °F

Location of BurnabyLocation

Past Weather in Burnaby — Graph

°F

Burnaby Temperature Yesterday

Maximum temperature yesterday: 57 °F (at 5:00 PM)
Minimum temperature yesterday: 48 °F (at 6:00 AM)
Average temperature yesterday: 53 °F

High & Low Weather Summary for the Past Weeks

 TemperatureHumidityPressure
High72 °F (May 14, 1:00 PM)100% (May 27, 7:00 AM)30.29 "Hg (May 27, 7:00 AM)
Low48 °F (May 21, 2:00 AM)47% (May 14, 1:00 PM)29.72 "Hg (May 21, 5:00 AM)
Average57 °F75%29.99 "Hg
* Reported May 14 3:00 AM — May 29 3:00 AM, Burnaby, Weather by CustomWeather, © 2016

Note: Actual official high and low records may vary slightly from our data, if they occured in-between our weather recording intervals... More about our weather records

Advertising

Burnaby Weather History for the Previous 24 Hours

Scroll right to see more
 ConditionsComfort  
Time TempWeatherWind HumidityBarometerVisibility
3:00 AM
Sun, May 29
52 °FOvercast.2 mph94%30.01 "Hg12 mi
2:55 AM52 °FMostly cloudy.3 mph94%30.01 "Hg12 mi
2:00 AM52 °FPartly cloudy.3 mph94%30.00 "Hg12 mi
1:00 AM54 °FMostly cloudy.6 mph94%29.99 "Hg12 mi
12:00 AM55 °FMostly cloudy.3 mph88%29.99 "Hg12 mi
11:00 PM
Sat, May 28
54 °FMostly cloudy.3 mph94%29.98 "Hg12 mi
10:00 PM55 °FBroken clouds.6 mph88%29.98 "Hg12 mi
9:00 PM55 °FMostly cloudy.6 mph88%29.96 "Hg12 mi
8:00 PM57 °FMostly cloudy.14 mph82%29.95 "Hg12 mi
7:00 PM57 °FMostly cloudy.15 mph82%29.94 "Hg12 mi
6:00 PM57 °FSprinkles. Mostly cloudy.18 mph82%29.93 "Hg10 mi
5:00 PM57 °FMostly cloudy.17 mph82%29.94 "Hg10 mi
4:00 PM55 °FSprinkles. Mostly cloudy.15 mph88%29.95 "Hg10 mi
3:00 PM55 °FCloudy.17 mph88%29.96 "Hg10 mi
2:00 PM54 °FMore clouds than sun.20 mph88%29.97 "Hg10 mi
1:00 PM54 °FMostly cloudy.16 mph88%29.98 "Hg10 mi
12:00 PM52 °FLight rain. Mostly cloudy.13 mph94%29.98 "Hg8 mi
11:00 AM50 °FLight rain. Fog.16 mph94%29.99 "Hg5 mi
10:00 AM50 °FHeavy rain. Fog.15 mph94%29.99 "Hg2 mi
9:00 AM50 °FRain. Fog.13 mph94%30.01 "Hg3 mi
8:00 AM50 °FLight rain. Fog.13 mph94%30.01 "Hg4 mi
7:00 AM48 °FLight rain. Fog.12 mph94%30.02 "Hg4 mi
6:00 AM48 °FLight rain. Mostly cloudy.10 mph94%30.03 "Hg8 mi
5:00 AM50 °FLight rain. Mostly cloudy.8 mph94%30.04 "Hg10 mi
4:00 AM50 °FLight rain. Mostly cloudy.8 mph94%30.05 "Hg10 mi
Weather by CustomWeather, © 2016

See weather overviewHow to use our weather pages